Tracking 28790 objects as of 19-Apr-2024
HD Live streaming from Space Station
objects crossing your sky now

KEPLER-4 (ANTILLES)

Track KEPLER-4 (ANTILLES) now!
10-day predictions


NORAD ID: 46499
Int'l Code: 2020-068P
Perigee: 487.5 km
Apogee: 501.9 km
Inclination: 97.8 °
Period: 94.4 minutes
Semi major axis: 6865 km
RCS: Unknown
Launch date: September 28, 2020
Source: Canada (CA)
Launch site: PLESETSK MISSILE AND SPACE COMPLEX (PKMTR)
Your satellite tracking list
Your tracking list is empty




NASA's NSSDC Master Catalog

Two Line Element Set (TLE):
1 46499U 20068P   24110.13344558  .00042549  00000-0  16438-2 0  9997
2 46499  97.7970  72.4840 0010546 137.2992 222.9067 15.26073043195685
Source of the keplerian elements: AFSPC